Weather in Poser

Russia / Perm Krai     58°33′32″N   55°31′20″E
temp.,
°C
wind,
m/s
gust,
m/s
humid.,
%
clouds,
%
prec.,
mm/h
press.,
hPa
HPBL,
m
4 march, thu
thu423:00−8w269499 1.4 997157
02:00−11wsw259777 0.0 996129
05:00−11wsw379781 0.1 996162
08:00−11wsw379596 0.2 995241
11:00−9sw369397 0.3 995288
14:00−6ssw4792100 0.4 994488
17:00−5s41092100 0.9 992551
20:00−5s41192100 0.2 989708
5 march, fri
fri523:00−5sse41294100 0.8 985680
02:00−5sse2796100 1.3 984377
05:00−8sw1297100 1.4 98621
08:00−8wnw3696100 0.2 989193
11:00−6wnw4893100 0.9 993580
14:00−7wnw5890100 0.4 996687
17:00−8wnw5986100 0.6 999752
20:00−13w369130 0.0 1001123
6 march, sat
sat623:00−14wsw259634 0.0 1004105
02:00−15wsw239899 0.1 100469
05:00−15w239799 0.3 100682
08:00−16w3896100 0.2 1007347
11:00−16w369095 0.3 1008366
14:00−13w358683 0.0 1009594
17:00−12w358691 0.1 1010699
20:00−17wsw2396100 0.0 101025
7 march, sun
sun723:00−18wsw2398100 0.1 101145
02:00−20wsw2210086 0.0 101021
05:00−21sw229986 0.1 101120
08:00−23sw2210089 0.0 101022
11:00−18wsw239292 0.1 1010239
14:00−14wsw2382100 0.0 1009624
17:00−14sw2384100 0.1 1009644
20:00−19s229575 0.0 100920
8 march, mon
mon823:00−20s239873 0.0 100958
02:00−20sse379873 0.0 1007174
05:00−19se399684 0.0 1006262
08:00−18se4995100 0.0 1003319
11:00−16se4992100 0.5 1001452
14:00−12se4890100 0.3 1000606
17:00−10se3692100 0.8 999550
20:00−10s2795100 0.4 1000242